Location: Unspecified
(0.0000°N, 0.0000°E)
Time: 21:13:09
(UTC+00:00)

Iridium 29 - Visible Passes

Search period start: 12 January 2025 00:00
Search period end: 22 January 2025 00:00
Orbit: 769 x 772 km, 86.4° (Epoch: 12 January)

Date Brightness Start Highest point End Pass type
(mag) Time Alt. Az. Time Alt. Az. Time Alt. Az.
12 Jan 8.4 05:27:45 10° SE 05:31:01 17° E 05:34:17 10° NE visible
13 Jan 8.1 19:04:17 10° NW 19:08:16 23° W 19:12:16 10° SW visible
14 Jan 6.5 18:27:50 10° NNW 18:32:51 53° W 18:37:54 10° SSW visible
15 Jan 8.1 05:21:02 10° SE 05:25:05 23° E 05:29:06 10° NE visible
16 Jan 8.4 18:59:08 10° NW 19:02:19 17° W 19:05:31 10° SW visible
18 Jan 7.5 05:14:35 10° SSE 05:19:08 31° E 05:23:39 10° NNE visible
19 Jan 8.5 04:41:20 10° ESE 04:43:43 13° E 04:46:05 10° ENE visible
19 Jan 8.7 18:54:33 10° WNW 18:56:21 12° W 18:58:11 10° WSW visible
20 Jan 5.5 05:43:25 10° S 05:48:35 80° W 05:53:44 10° N visible
21 Jan 6.8 05:08:17 10° SSE 05:13:10 43° E 05:18:02 10° NNE visible
